Regional Weather Roundup
Issued by NWS

Home | Current Version | Previous Version | Graphics & Text | Print | Product List | Glossary On
Versions: 1 2 3 4 5 6 7 8 9 10 11 12 13 14 15 16 17 18 19 20 21 22 23 24 25 26 27 28 29 30 31 32 33 34 35 36 37 38 39 40 41 42 43 44 45 46 47 48 49 50
000
ASUS45 KTFX 231119
RWRMT
MONTANA HOURLY WEATHER ROUNDUP
NATIONAL WEATHER SERVICE GREAT FALLS MT
519 AM MDT TUE SEP 23 2014

NOTE: "FAIR" INDICATES FEW OR NO CLOUDS BELOW 12000 FEET WITH NO
SIGNIFICANT WEATHER AND/OR OBSTRUCTIONS TO VISIBILITY.

* THESE STATIONS ARE NOT UNDER NWS QUALITY CONTROL. THEY DO NOT
   REPORT WEATHER SUCH AS PRECIPITATION OR FOG.

MTZ001>007-043-231200-
WEST OF THE DIVIDE
CITY           SKY/WX    TMP DP  RH WIND       PRES   REMARKS
KALISPELL      CLOUDY    50  46  86 CALM      29.98R
MISSOULA       MOCLDY    52  43  72 CALM      30.05R
BUTTE          CLEAR     39  37  93 CALM      30.14F
MULLAN PASS    CLOUDY    50  46  86 CALM      30.13F
* ESSEX        N/A       49  43  80 E1G6       N/A
* LINCOLN      N/A       39  35  86 NE1        N/A
* POLSON       N/A       60  43  54 S1         N/A
* RONAN APT    PTCLDY    54  45  72 N/A        N/A
* SEELEY LAKE  N/A       40  36  86 NE2        N/A
* THOMP F APT  CLOUDY    48  46  93 NE3G10     N/A
$$

MTZ008-052>055-231200-
SOUTHWEST MONTANA
CITY           SKY/WX    TMP DP  RH WIND       PRES   REMARKS
BOZEMAN        CLEAR     45  43  93 CALM      30.10R
DILLON         PTCLDY    50  45  83 S6        30.13S
W YELLOWSTONE  CLOUDY    45  45 100 CALM      30.24S
* THREE FORKS  CLEAR     45  28  51 N/A        N/A
* BOULDER HILL N/A       53  40  62 S9         N/A
* MONIDA PASS  N/A       45  45 100 E1         N/A
* RAYNOLDS PAS N/A       47  34  61 SW4        N/A
* WHITEHALL    N/A       48  45  89 N6         N/A
* WISE RIVER   N/A       40  38  93 SW3        N/A
$$

MTZ009>010-012-014-046-048-049-054-231200-
EAST SLOPES AND CENTRAL MONTANA
CITY           SKY/WX    TMP DP  RH WIND       PRES   REMARKS
CUT BANK       CLEAR     61  45  56 W8        29.94S
GREAT FALLS    CLEAR     59  46  62 SW14      29.96R
HELENA         CLEAR     52  48  86 CALM      30.04S
MALMSTROM AFB  PTCLDY    59  48  67 SW13      29.97S
* CONRAD       CLEAR     55  46  72 SE6        N/A
* EAST GLACIER N/A       58  42  55 W11G16     N/A
* MONARCH      N/A       52  42  69 S4G12      N/A
* PENDROY      N/A       62  43  50 NW12       N/A
* ROGERS PASS  N/A       57  37  47 NW4        N/A
* SAINT MARY   N/A       55  45  69 S5         N/A
* SWEET GRASS  N/A       63  42  46 W12G17     N/A
* WHITE SULPH  N/A       48  45  89 NE3        N/A
$$

MTZ011-013-016-021-035-040-045-047-050-051-231200-
NORTH CENTRAL MONTANA
CITY           SKY/WX    TMP DP  RH WIND       PRES   REMARKS
HAVRE          MOCLDY    54  48  80 W7        29.88R
LEWISTOWN      CLEAR     54  45  72 S5        29.99R
* CHINOOK      PTCLDY    46  46 100 CALM      29.87R
* FORT BENTON  PTCLDY    59  48  67 SW7       29.93R
* CHESTER      N/A       52  42  69 NE1        N/A
* DENTON       N/A       56  47  72 S6         N/A
* GEYSER       N/A       56  44  64 SW12       N/A
* JUDITH GAP   N/A       53  46  77 E5         N/A
* LOMA         N/A       61  47  60 W7         N/A
$$

MTZ017>020-022>027-061-062-231200-
NORTHEAST MONTANA
CITY           SKY/WX    TMP DP  RH WIND       PRES   REMARKS
GLASGOW        CLEAR     48  45  89 N5        29.84R
GLENDIVE       CLEAR     50  46  86 N5        29.86S
JORDAN         CLEAR     48  46  93 W3        29.86R
SIDNEY         CLEAR     48  45  89 CALM      29.86R
WOLF POINT     CLEAR     46  45  96 CALM      29.84S
* BEAVER HILL  N/A       54  48  80 E3         N/A
* CIRCLE       N/A       49  45  86 N/A        N/A
* LINDSAY DVD  N/A       58  50  75 NW8        N/A
* NAVAJO       N/A       51  46  83 SW4        N/A
$$

MTZ028>042-056>058-231200-
SOUTHCENTRAL AND SOUTHEAST MONTANA
CITY           SKY/WX    TMP DP  RH WIND       PRES   REMARKS
BAKER          PTCLDY    52  48  86 CALM      29.88R
BILLINGS       CLEAR     61  46  58 SW16      29.96R
LIVINGSTON     PTCLDY    61  46  58 NW17G25   30.07R
MILES CITY     PTCLDY    52  46  80 CALM      29.86S
* LAUREL APT   PTCLDY    55  45  69 N/A        N/A
* ROUNDUP APT  CLEAR     55  46  72 S8         N/A
* ALZADA       N/A       60  56  87 E8         N/A
* HYSHAM       N/A       57  46  67 W6         N/A
* LAME DEER    N/A       60  47  62 W9         N/A
* REED POINT   N/A       56  46  69 SW6        N/A
* ROSCOE HILL  N/A       62  35  37 SW10G16    N/A
$$

REGIONAL REPORTS...DAKOTAS
CITY           SKY/WX    TMP DP  RH WIND       PRES   REMARKS
WILLISTON      CLEAR     50  46  86 NE6       29.85S
DICKINSON      CLEAR     52  48  86 SE8       29.86R
BEACH          N/A       50  50 100 S5        29.87S
CROSBY         CLEAR     48  48 100 S6        29.86S
TIOGA          CLEAR     45  45 100 E6        29.90S
WATFORD CITY   CLEAR     46  46 100 CALM      29.84S
BISMARCK       CLEAR     55  54  96 SE8       29.92R
GRAND FORKS    CLEAR     52  48  86 S8        30.02R
FARGO          CLEAR     57  48  72 SE12      30.04S
BUFFALO SD     MOCLDY    61  54  78 S6        29.84R
RAPID CITY     MOCLDY    57  54  90 NW6       29.91S
$$

REGIONAL REPORTS...WYOMING/IDAHO/WASHINGTON
CITY           SKY/WX    TMP DP  RH WIND       PRES   REMARKS
GILLETTE       MOCLDY    55  50  83 S8        29.99F
SHERIDAN       PTCLDY    52  45  77 SE3       29.97R
CODY           MOCLDY    61  45  56 W3        30.07R
YELLOWSTONE LA PTCLDY    46  46 100 CALM      30.31S
SALMON         PTCLDY    50  48  93 CALM      30.11R
MULLAN PASS    CLOUDY    50  46  86 CALM      30.13S
SAND POINT     CLOUDY    63  52  68 SW3       29.99R
SPOKANE        CLOUDY    63  54  73 SE12      29.95S
$$

REGIONAL REPORTS...ALBERTA
CITY           SKY/WX    TMP DP  RH WIND       PRES   REMARKS
CALGARY        PTCLDY    57  45  64 NE7       29.90R
LETHBRIDGE     CLEAR     59  45  60 SW16      29.88R
MEDICINE HAT   CLEAR     55  48  77 SW10      29.82R
EDMONTON       PTCLDY    55  50  83 NW8       29.88R
WATERTON GATE  N/A       55  43  64 SW6        N/A
CARDSTON       N/A       57  45  64 SW10       N/A
MILK RIVER     N/A       54  45  72 NW6        N/A
$$

REGIONAL REPORTS...SASKATCHEWAN
CITY           SKY/WX    TMP DP  RH WIND       PRES   REMARKS
SWIFT CURRENT  CLEAR     55  48  77 SW12      29.81R
MOOSE JAW      FAIR      54  48  80 S8        29.80S
REGINA         N/A       50  48  93 SE13      29.83R
VAL MARIE      N/A       43  41  93 NE3        N/A
ASSINIBOIA     N/A       52  45  77 S3         N/A
CORONACH       N/A       43  41  93 S2         N/A

$$




USA.gov is the U.S. government's official web portal to all federal, state and local government web resources and services.